Location: Shenandoah County Park
(38.9356°N, 78.4524°W)
Time: 12:08:28
(UTC-04:00)

Envisat - Pass Details

Date: 01 June 2024
Orbit: 762 x 764 km, 98.3° (Epoch: 14 June)

Event Time Altitude Azimuth Distance (km) Brightness Sun altitude
Rises 05:14:03 0° 3° (N) 3,233 6.9 -6.7°
Reaches altitude 10° 05:16:31 10° 355° (N) 2,303 5.9 -6.3°
Maximum altitude 05:21:05 36° 290° (WNW) 1,205 3.8 -5.6°
Drops below altitude 10° 05:25:39 10° 226° (SW) 2,289 4.8 -4.9°
Enters shadow 05:27:01 - 220° (SW) 2,795 5.3 -4.6°
